#timestamp,LO_Frequency,Hit,StdDev 
1611514815.1,286046994.3,N
1611514835.9,286046998.9,N
1611514855.7,286047002.4,N
1611514875.6,286047003.8,N
1611514895.4,286046999.8,N
1611514915.2,286046999.9,N
1611514935.1,286046998.2,N
1611514936.0,286046998.2,N
1611514955.8,286047000.9,N
1611514975.7,286047002.4,N
1611514995.5,286047001.3,N
1611515015.3,286047005.6,N
1611515035.2,286047002.1,N
1611515055.0,286047002.3,N
1611515055.9,286047002.3,N
1611515075.7,286047000.6,N
1611515095.6,286046999.2,N
1611515115.4,286047001.5,N
1611515135.3,286047000.1,N
1611515155.1,286046997.5,N
1611515175.8,286046997.1,N
1611515195.7,286046996.7,N
1611515215.5,286046996.8,N
1611515235.4,286046997.7,N
1611515255.2,286046996.2,N
1611515275.0,286046996.5,N
1611515275.9,286046996.5,N
1611515295.8,286046998.3,N
1611515315.6,286047000.8,N
1611515335.5,286047000.9,N
1611515355.3,286046999.9,N
1611515375.1,286047000.6,N
1611515395.9,286046998.7,N
1611515415.7,286046998.0,N
1611515435.5,286046992.4,Y
1611515455.4,286046992.0,P
1611515475.2,286046997.4,N
1611515495.1,286046995.6,N
1611515496.0,286046995.6,N
1611515515.8,286046992.0,Y
1611515535.7,286046997.8,P
1611515555.5,286046995.2,P
1611515575.3,286046996.1,P
1611515595.2,286046993.7,Y
1611515615.0,286047001.1,P
1611515615.9,286047001.1,N
1611515635.7,286046998.9,N
1611515655.6,286046998.8,N
1611515675.4,286047002.2,N
1611515695.3,286046996.6,N
1611515715.1,286046995.4,N
1611515716.0,286046995.4,N
1611515735.8,286046995.6,N
1611515755.7,286046993.3,N
1611515775.5,286046995.7,N
1611515795.4,286046997.1,N
1611515815.2,286046999.8,N
1611515835.0,286047007.1,N
1611515835.9,286047007.1,N
1611515855.8,286047001.4,N
1611515875.6,286047002.1,N
1611515895.4,286047002.6,N
1611515915.3,286047003.6,N
1611515935.1,286046998.1,N
1611515955.9,286046998.2,N
1611515975.7,286046999.6,N
1611515995.5,286046998.1,N
1611516015.4,286047000.6,N
1611516035.2,286046998.3,N
1611516055.0,286046999.6,N
1611516056.0,286046999.6,N
1611516075.8,286046999.0,N
1611516095.6,286047001.7,N
1611516115.5,286047001.7,N
1611516135.3,286047005.4,N
1611516155.1,286047004.7,N
1611516175.9,286047004.5,N
1611516195.7,286047003.7,N
1611516215.6,286046999.9,N
1611516235.4,286046997.4,N
1611516255.2,286046995.6,N
1611516275.1,286047001.5,N
1611516276.0,286047001.5,N
1611516295.8,286047002.2,N
1611516315.7,286047004.0,N
1611516335.5,286047001.7,N
1611516355.3,286047004.8,N
1611516375.2,286047006.2,N
1611516395.9,286047005.9,N
1611516415.7,286047002.6,N
1611516435.6,286047002.0,N
1611516455.4,286047003.5,N
1611516475.3,286047001.3,N
1611516495.1,286047002.6,N
1611516496.0,286047002.6,N
1611516515.8,286047002.1,N
1611516535.7,286047001.5,N
1611516555.5,286046999.9,N
1611516575.3,286046997.4,N
1611516595.2,286046997.3,N
1611516615.0,286047000.8,N
1611516615.9,286047000.8,N
1611516635.8,286047001.0,N
1611516655.6,286047000.2,N
1611516675.4,286047001.0,N
1611516695.3,286047000.9,N
1611516715.1,286047004.4,N
1611516735.9,286047005.8,N
1611516755.7,286047006.0,N
1611516775.5,286047005.8,N
1611516795.4,286047002.9,N
1611516815.2,286047002.7,N
1611516835.0,286047001.1,N
1611516836.0,286047001.1,N
1611516855.8,286047002.5,N
1611516875.6,286047004.0,N
1611516895.5,286047007.3,Y
1611516915.3,286047003.6,P
1611516935.1,286047005.3,P
1611516955.9,286047005.9,P
1611516975.7,286047001.6,N
1611516995.6,286046999.2,N
1611517015.4,286046996.3,N
1611517035.2,286046992.6,N
1611517055.1,286046992.0,N
1611517056.0,286046992.0,N
1611517075.8,286046993.2,N
1611517095.7,286046994.5,N
1611517115.5,286046994.4,N
1611517135.3,286046994.4,N
1611517155.2,286046990.3,N
1611517175.0,286046994.4,N
1611517175.9,286046994.4,N
1611517195.7,286046996.4,N
1611517215.6,286046998.0,N
1611517235.4,286046997.3,N
1611517255.3,286046999.4,N
1611517275.1,286047000.7,N
1611517295.8,286047000.9,N
1611517315.7,286046997.4,N
1611517335.5,286046999.2,N
1611517355.4,286046996.7,N
1611517375.2,286046997.6,N
1611517395.0,286046998.6,N
1611517395.9,286046998.6,N
1611517415.8,286046998.3,N
1611517435.6,286046998.4,N
1611517455.4,286046998.8,N
1611517475.3,286046999.0,N
1611517495.1,286046998.3,N
1611517515.9,286046999.3,N
1611517535.7,286046999.4,N
1611517555.5,286046996.7,N
1611517575.4,286046999.2,N
1611517595.2,286046999.2,N
1611517615.1,286046996.3,N
1611517616.0,286046996.3,N
1611517635.8,286046991.7,Y
1611517655.6,286046993.8,P
1611517675.5,286046993.3,P
1611517695.3,286046995.5,N
1611517715.1,286046995.8,N
1611517735.9,286046999.6,N
1611517755.7,286046999.0,N
1611517775.6,286046999.2,N
1611517795.4,286046997.2,N
1611517815.2,286046997.3,N
1611517835.1,286047000.4,N
1611517836.0,286047000.4,N
1611517855.8,286047001.8,N
1611517875.7,286047001.3,N
1611517895.5,286046999.2,N
1611517915.3,286046996.9,N
1611517935.2,286046997.1,N
1611517955.0,286046996.9,N
1611517955.9,286046996.9,N
1611517975.7,286046998.8,N
1611517995.6,286047000.7,N
1611518015.4,286047000.6,N
1611518035.3,286046998.8,N
1611518055.1,286047000.9,N
1611518056.0,286047000.9,N
1611518075.8,286047001.2,N
1611518095.7,286046997.8,N
1611518115.5,286046993.8,N
1611518135.4,286046992.1,Y
1611518155.2,286046991.9,P
1611518175.0,286046991.8,N
1611518175.9,286046991.8,N
1611518195.8,286046995.9,N
1611518215.6,286046990.9,Y
1611518235.4,286046997.9,P
1611518255.3,286046998.4,N
1611518275.1,286046999.9,N
1611518295.9,286047000.4,N
1611518315.7,286047000.8,N
1611518335.5,286047001.1,N
1611518355.4,286046999.8,N
1611518375.2,286046999.2,N
1611518395.1,286046997.3,N
1611518396.0,286046997.3,N
